KLM1015 EDDL-EHAM

Flight info

Callsign KLM1015
Flight time 0h 39m
Altitude 18000
Route SONEB4H SONEB P55 RKN
Aircraft E190/M-SDE3GILORVW/S

Departure

Time 2026-05-04 20:35
Airport Düsseldorf Airport (EDDL)

Arrival

Time 2026-05-04 21:15
Airport Amsterdam Airport Schiphol (EHAM)
Time Latitude Longitude Altitude Speed Heading
2026-05-04 19:53 51.27764 6.76248 127 ft 0 kts 163°
2026-05-04 20:20 51.27772 6.76245 122 ft 4 kts 161°
2026-05-04 20:20 51.27797 6.76232 125 ft 4 kts 169°
2026-05-04 20:20 51.27823 6.76230 124 ft 4 kts 202°
2026-05-04 20:21 51.27840 6.76254 122 ft 4 kts 261°
2026-05-04 20:21 51.27841 6.76273 123 ft 1 kts 270°
2026-05-04 20:21 51.27841 6.76275 123 ft 0 kts 270°
2026-05-04 20:26 51.27841 6.76271 127 ft 1 kts 270°
2026-05-04 20:26 51.27841 6.76270 127 ft 0 kts 270°
2026-05-04 20:26 51.27841 6.76268 127 ft 1 kts 270°
2026-05-04 20:27 51.27841 6.76234 104 ft 4 kts 270°
2026-05-04 20:27 51.27842 6.76150 126 ft 7 kts 271°
2026-05-04 20:27 51.27848 6.76070 124 ft 8 kts 297°
2026-05-04 20:27 51.27895 6.76048 124 ft 7 kts
2026-05-04 20:28 51.27948 6.76049 127 ft 8 kts 360°
2026-05-04 20:28 51.28005 6.76047 126 ft 8 kts
2026-05-04 20:28 51.28069 6.76047 126 ft 10 kts 357°
2026-05-04 20:28 51.28138 6.76041 126 ft 11 kts 42°
2026-05-04 20:29 51.28180 6.76125 123 ft 11 kts 52°
2026-05-04 20:29 51.28227 6.76224 124 ft 12 kts 53°
2026-05-04 20:29 51.28284 6.76344 119 ft 16 kts 52°
2026-05-04 20:29 51.28354 6.76491 121 ft 17 kts 53°
2026-05-04 20:30 51.28426 6.76643 123 ft 18 kts 52°
2026-05-04 20:30 51.28499 6.76795 125 ft 16 kts 53°
2026-05-04 20:30 51.28567 6.76938 128 ft 17 kts 53°
2026-05-04 20:30 51.28635 6.77083 132 ft 16 kts 52°
2026-05-04 20:31 51.28708 6.77234 130 ft 18 kts 53°
2026-05-04 20:31 51.28786 6.77400 126 ft 19 kts 53°
2026-05-04 20:31 51.28872 6.77578 124 ft 20 kts 52°
2026-05-04 20:31 51.28955 6.77754 128 ft 20 kts 53°
2026-05-04 20:32 51.29038 6.77928 133 ft 19 kts 53°
2026-05-04 20:32 51.29121 6.78101 132 ft 20 kts 52°
2026-05-04 20:32 51.29204 6.78277 133 ft 21 kts 53°
2026-05-04 20:32 51.29294 6.78465 132 ft 21 kts 53°
2026-05-04 20:33 51.29373 6.78572 132 ft 14 kts
2026-05-04 20:33 51.29458 6.78566 132 ft 7 kts 355°
2026-05-04 20:33 51.29503 6.78560 134 ft 5 kts 355°
2026-05-04 20:33 51.29537 6.78556 135 ft 5 kts 355°
2026-05-04 20:34 51.29554 6.78547 135 ft 1 kts 311°
2026-05-04 20:34 51.29551 6.78535 135 ft 1 kts 241°
2026-05-04 20:34 51.29550 6.78534 135 ft 0 kts 238°
2026-05-04 20:34 51.29543 6.78518 134 ft 11 kts 236°
2026-05-04 20:35 51.29350 6.78112 131 ft 81 kts 233°
2026-05-04 20:35 51.28886 6.77140 127 ft 140 kts 232°
2026-05-04 20:35 51.28224 6.75759 435 ft 165 kts 232°
2026-05-04 20:35 51.27548 6.74288 1284 ft 164 kts 234°
2026-05-04 20:36 51.26948 6.72709 1952 ft 175 kts 247°
2026-05-04 20:36 51.26820 6.71359 2244 ft 193 kts 277°
2026-05-04 20:36 51.27894 6.69150 3282 ft 200 kts 330°
2026-05-04 20:36 51.29227 6.68486 4065 ft 202 kts 350°
2026-05-04 20:37 51.30687 6.68499 4647 ft 218 kts
2026-05-04 20:37 51.32269 6.68874 5085 ft 243 kts
2026-05-04 20:37 51.34019 6.69209 5602 ft 263 kts
2026-05-04 20:37 51.35899 6.69474 6241 ft 277 kts
2026-05-04 20:38 51.37184 6.69631 6780 ft 280 kts
2026-05-04 20:38 51.39124 6.69844 7621 ft 281 kts
2026-05-04 20:38 51.41091 6.69920 8453 ft 284 kts
2026-05-04 20:38 51.43075 6.69875 9294 ft 287 kts
2026-05-04 20:39 51.45744 6.69834 10247 ft 297 kts
2026-05-04 20:39 51.47177 6.69832 10449 ft 312 kts
2026-05-04 20:39 51.49413 6.69848 10799 ft 331 kts
2026-05-04 20:39 51.51771 6.69878 11253 ft 345 kts
2026-05-04 20:40 51.54189 6.69910 11961 ft 351 kts
2026-05-04 20:40 51.56610 6.69930 12787 ft 355 kts
2026-05-04 20:40 51.59101 6.69935 13697 ft 358 kts
2026-05-04 20:40 51.61623 6.69935 14516 ft 364 kts
2026-05-04 20:41 51.64155 6.70048 15393 ft 366 kts
2026-05-04 20:41 51.66705 6.70519 16148 ft 372 kts
2026-05-04 20:41 51.69263 6.71045 16848 ft 378 kts
2026-05-04 20:41 51.71903 6.71532 17543 ft 384 kts
2026-05-04 20:42 51.74585 6.71998 18048 ft 390 kts
2026-05-04 20:42 51.77275 6.72461 17997 ft 387 kts
2026-05-04 20:42 51.79946 6.72909 17980 ft 385 kts
2026-05-04 20:42 51.82607 6.73352 17961 ft 384 kts
2026-05-04 20:43 51.85264 6.73793 17974 ft 384 kts
2026-05-04 20:43 51.87897 6.74237 17965 ft 379 kts
2026-05-04 20:43 51.90526 6.74674 17968 ft 379 kts
2026-05-04 20:43 51.93157 6.75118 17964 ft 379 kts
2026-05-04 20:44 51.95755 6.75554 17958 ft 379 kts
2026-05-04 20:44 51.98387 6.75999 17966 ft 379 kts
2026-05-04 20:44 52.01018 6.76273 17988 ft 379 kts 359°
2026-05-04 20:44 52.03599 6.75449 18020 ft 379 kts 339°
2026-05-04 20:45 52.05831 6.73183 18008 ft 378 kts 316°
2026-05-04 20:45 52.07413 6.69787 18071 ft 377 kts 297°
2026-05-04 20:45 52.08272 6.65770 18021 ft 377 kts 283°
2026-05-04 20:45 52.08800 6.61605 18031 ft 376 kts 281°
2026-05-04 20:46 52.09316 6.57434 18023 ft 377 kts 281°
2026-05-04 20:46 52.09850 6.53259 17993 ft 376 kts 282°
2026-05-04 20:46 52.10382 6.49099 17995 ft 376 kts 282°
2026-05-04 20:46 52.10911 6.44978 18001 ft 374 kts 282°
2026-05-04 20:47 52.11445 6.40852 17992 ft 371 kts 283°
2026-05-04 20:47 52.11976 6.36769 17998 ft 364 kts 283°
2026-05-04 20:47 52.12495 6.32768 18000 ft 362 kts 283°
2026-05-04 20:47 52.13012 6.28728 18016 ft 365 kts 283°
2026-05-04 20:48 52.13523 6.24684 18023 ft 363 kts 283°
2026-05-04 20:48 52.14115 6.20701 18034 ft 361 kts 290°
2026-05-04 20:48 52.15310 6.17091 18091 ft 365 kts 309°
2026-05-04 20:48 52.17181 6.14310 18102 ft 365 kts 327°
2026-05-04 20:49 52.19480 6.12707 18003 ft 367 kts 347°
2026-05-04 20:49 52.22027 6.12421 18019 ft 369 kts
2026-05-04 20:49 52.24497 6.13517 18028 ft 372 kts 24°
2026-05-04 20:49 52.26618 6.15920 18044 ft 374 kts 44°
2026-05-04 20:50 52.28132 6.19370 18056 ft 377 kts 63°
2026-05-04 20:50 52.28856 6.23485 18042 ft 378 kts 85°
2026-05-04 20:50 52.28687 6.27756 18019 ft 380 kts 106°
2026-05-04 20:50 52.27768 6.31810 17967 ft 380 kts 111°
2026-05-04 20:51 52.27204 6.36009 17980 ft 379 kts 91°
2026-05-04 20:51 52.27619 6.40216 17970 ft 377 kts 68°
2026-05-04 20:51 52.28972 6.43854 17988 ft 376 kts 49°
2026-05-04 20:51 52.31015 6.46469 17997 ft 375 kts 28°
2026-05-04 20:52 52.33490 6.47741 18001 ft 376 kts
2026-05-04 20:52 52.36077 6.47519 17987 ft 372 kts 346°
2026-05-04 20:52 52.38378 6.45884 18004 ft 366 kts 326°
2026-05-04 20:52 52.40205 6.43015 18021 ft 365 kts 307°
2026-05-04 20:53 52.41327 6.39325 18032 ft 364 kts 290°
2026-05-04 20:53 52.42093 6.35370 18017 ft 364 kts 287°
2026-05-04 20:53 52.42833 6.31413 18006 ft 361 kts 288°
2026-05-04 20:53 52.43567 6.27485 18039 ft 361 kts 288°
2026-05-04 20:54 52.44311 6.23544 18033 ft 360 kts 288°
2026-05-04 20:54 52.45044 6.19627 18034 ft 359 kts 288°
2026-05-04 20:54 52.45774 6.15720 18034 ft 359 kts 288°
2026-05-04 20:54 52.46508 6.11786 18029 ft 362 kts 288°
2026-05-04 20:55 52.47243 6.07841 18028 ft 362 kts 288°
2026-05-04 20:55 52.47986 6.03906 18024 ft 360 kts 290°
2026-05-04 20:55 52.49073 6.00211 18051 ft 361 kts 296°
2026-05-04 20:55 52.49842 5.96267 17605 ft 368 kts 280°
2026-05-04 20:56 52.50043 5.92063 16587 ft 371 kts 274°
2026-05-04 20:56 52.50177 5.87824 15543 ft 372 kts 274°
2026-05-04 20:56 52.50322 5.83623 14486 ft 374 kts 274°
2026-05-04 20:56 52.50466 5.79352 13330 ft 376 kts 274°
2026-05-04 20:57 52.50609 5.75028 12051 ft 380 kts 274°
2026-05-04 20:57 52.50744 5.70802 11453 ft 356 kts 274°
2026-05-04 20:57 52.50865 5.66907 10919 ft 327 kts 273°
2026-05-04 20:57 52.50960 5.63265 10523 ft 314 kts 273°
2026-05-04 20:58 52.51056 5.59736 10233 ft 303 kts 273°
2026-05-04 20:58 52.50908 5.56396 10047 ft 287 kts 252°
2026-05-04 20:58 52.50040 5.53549 10038 ft 275 kts 239°
2026-05-04 20:58 52.49003 5.50870 10042 ft 277 kts 238°
2026-05-04 20:59 52.47973 5.48161 10039 ft 280 kts 239°
2026-05-04 20:59 52.46946 5.45420 10047 ft 280 kts 240°
2026-05-04 20:59 52.45947 5.42730 10032 ft 279 kts 240°
2026-05-04 20:59 52.44939 5.40015 10029 ft 277 kts 240°
2026-05-04 21:00 52.43931 5.37299 10035 ft 281 kts 240°
2026-05-04 21:00 52.42920 5.34572 10028 ft 281 kts 240°
2026-05-04 21:00 52.41899 5.31820 10033 ft 282 kts 240°
2026-05-04 21:00 52.40884 5.29087 10032 ft 279 kts 240°
2026-05-04 21:01 52.39869 5.26353 10028 ft 282 kts 240°
2026-05-04 21:01 52.38845 5.23620 10027 ft 282 kts 239°
2026-05-04 21:01 52.37826 5.20897 10031 ft 283 kts 240°
2026-05-04 21:01 52.36781 5.18110 10024 ft 285 kts 239°
2026-05-04 21:02 52.35753 5.15389 10039 ft 284 kts 239°
2026-05-04 21:02 52.34717 5.12640 10039 ft 284 kts 239°
2026-05-04 21:02 52.33739 5.09878 10039 ft 274 kts 248°
2026-05-04 21:02 52.33400 5.06926 10042 ft 257 kts 268°
2026-05-04 21:03 52.33368 5.04082 9996 ft 243 kts 270°
2026-05-04 21:03 52.33365 5.01374 9948 ft 235 kts 270°
2026-05-04 21:03 52.33356 4.98723 10045 ft 231 kts 270°
2026-05-04 21:03 52.33340 4.96046 10110 ft 240 kts 270°
2026-05-04 21:04 52.33325 4.93179 10157 ft 264 kts 270°
2026-05-04 21:04 52.33308 4.90129 10217 ft 272 kts 270°
2026-05-04 21:04 52.33291 4.86937 10060 ft 281 kts 270°
2026-05-04 21:04 52.33271 4.83755 10078 ft 279 kts 270°
2026-05-04 21:05 52.33246 4.80619 10047 ft 279 kts 270°
2026-05-04 21:05 52.33219 4.77418 9980 ft 281 kts 270°
2026-05-04 21:05 52.33193 4.74243 10016 ft 281 kts 270°
2026-05-04 21:05 52.33166 4.70998 9568 ft 291 kts 270°
2026-05-04 21:06 52.33140 4.67679 8952 ft 291 kts 270°
2026-05-04 21:06 52.33111 4.64364 8382 ft 291 kts 270°
2026-05-04 21:06 52.33080 4.61054 7818 ft 291 kts 270°
2026-05-04 21:06 52.33048 4.57751 7261 ft 290 kts 270°
2026-05-04 21:07 52.33014 4.54497 6736 ft 289 kts 270°
2026-05-04 21:07 52.32980 4.51216 6189 ft 288 kts 270°
2026-05-04 21:07 52.32943 4.47955 5621 ft 284 kts 270°
2026-05-04 21:07 52.32902 4.44797 5268 ft 269 kts 270°
2026-05-04 21:08 52.32857 4.41819 4980 ft 255 kts 270°
2026-05-04 21:08 52.32554 4.39050 4673 ft 244 kts 245°
2026-05-04 21:08 52.31407 4.37121 4364 ft 237 kts 206°
2026-05-04 21:08 52.29816 4.36611 4140 ft 233 kts 180°
2026-05-04 21:09 52.28219 4.36692 4156 ft 233 kts 181°
2026-05-04 21:09 52.26569 4.36628 4179 ft 237 kts 184°
2026-05-04 21:09 52.24945 4.36583 4175 ft 235 kts 175°
2026-05-04 21:09 52.23444 4.37616 4146 ft 236 kts 137°
2026-05-04 21:10 52.22542 4.39796 4058 ft 238 kts 115°
2026-05-04 21:10 52.21930 4.42252 4180 ft 234 kts 112°
2026-05-04 21:10 52.21302 4.44761 3943 ft 240 kts 114°
2026-05-04 21:10 52.20821 4.47347 3577 ft 235 kts 98°
2026-05-04 21:11 52.20737 4.49924 3297 ft 222 kts 90°
2026-05-04 21:11 52.20804 4.52370 3013 ft 210 kts 80°
2026-05-04 21:11 52.21431 4.54470 2632 ft 203 kts 53°
2026-05-04 21:11 52.22253 4.56261 2477 ft 193 kts 57°
2026-05-04 21:12 52.22907 4.58074 2241 ft 182 kts 60°
2026-05-04 21:12 52.23538 4.59786 2000 ft 170 kts 57°
2026-05-04 21:12 52.24186 4.61407 1772 ft 169 kts 57°
2026-05-04 21:12 52.24799 4.62999 1584 ft 157 kts 58°
2026-05-04 21:13 52.25330 4.64403 1334 ft 136 kts 58°
2026-05-04 21:13 52.25810 4.65646 1155 ft 123 kts 56°
2026-05-04 21:13 52.26269 4.66832 991 ft 123 kts 58°
2026-05-04 21:13 52.26721 4.68018 830 ft 124 kts 57°
2026-05-04 21:14 52.27181 4.69207 670 ft 127 kts 56°
2026-05-04 21:14 52.27647 4.70432 521 ft 129 kts 57°
2026-05-04 21:14 52.28112 4.71624 330 ft 124 kts 53°
2026-05-04 21:14 52.28573 4.72843 129 ft 124 kts 58°
2026-05-04 21:15 52.29020 4.74004 8 ft 110 kts 56°
2026-05-04 21:15 52.29368 4.74913 -3 ft 75 kts 57°
2026-05-04 21:15 52.29572 4.75445 -4 ft 44 kts 58°
2026-05-04 21:15 52.29679 4.75700 -3 ft 22 kts 45°
2026-05-04 21:16 52.29795 4.75815 -3 ft 18 kts 26°
2026-05-04 21:16 52.29904 4.75908 -3 ft 17 kts 27°
2026-05-04 21:16 52.30001 4.75962 -2 ft 15 kts 350°
2026-05-04 21:16 52.30031 4.75834 -2 ft 14 kts 241°
2026-05-04 21:17 52.29978 4.75696 -2 ft 15 kts 238°
2026-05-04 21:17 52.29921 4.75547 -2 ft 15 kts 238°
2026-05-04 21:17 52.29892 4.75453 -2 ft 3 kts 271°
2026-05-04 21:17 52.29898 4.75440 -2 ft 1 kts 298°
2026-05-04 21:18 52.29905 4.75428 -2 ft 3 kts 317°
2026-05-04 21:18 52.29943 4.75387 -2 ft 9 kts 327°
2026-05-04 21:18 52.30002 4.75328 -2 ft 12 kts 329°
2026-05-04 21:18 52.30053 4.75289 -2 ft 3 kts 11°
2026-05-04 21:19 52.30068 4.75327 -2 ft 5 kts 79°
2026-05-04 21:19 52.30069 4.75372 -2 ft 1 kts 68°
2026-05-04 21:19 52.30074 4.75373 -2 ft 1 kts 26°
2026-05-04 21:19 52.30078 4.75369 -2 ft 1 kts 345°
2026-05-04 21:20 52.30084 4.75355 -2 ft 2 kts 308°
2026-05-04 21:20 52.30082 4.75348 -2 ft 1 kts 265°
2026-05-04 21:20 52.30076 4.75336 -2 ft 2 kts 239°
2026-05-04 21:21 52.30074 4.75330 -2 ft 0 kts 238°